This demonstration page uses our WeatherBlox Daily Observations layout. Learn more.

Left ArrowRight Arrow

Hourly Observations for September 1, 2017

Temp ( °F °C ) Dew Point ( °F °C ) Humidity (%) Winds ( mph kmh ) Pressure ( in mb ) Visibility ( mi km ) Precip ( " mm )
12:54 am 00:54 Clear 64 17.8 60 15.6 87 87 Calm 30.06 1018 10 16.0934 0 0
1:54 am 01:54 Clear 62 16.7 59 15 90 90 Calm 30.06 1018 10 16.0934 0 0
2:54 am 02:54 Clear 63 17.2 60 15.6 90 90 Calm 30.06 1018 10 16.0934 0 0
3:54 am 03:54 Clear 63 17.2 60 15.6 90 90 ENE 7 11 30.06 1018 10 16.0934 0 0
4:54 am 04:54 Clear 65 18.3 61 16.1 87 87 ESE 5 7 30.07 1018 10 16.0934 0 0
5:54 am 05:54 Clear 64 17.8 61 16.1 90 90 SE 6 9 30.07 1018 10 16.0934 0 0
6:54 am 06:54 Clear 63 17.2 60 15.6 90 90 SE 6 9 30.08 1019 10 16.0934 0 0
7:54 am 07:54 Sunny 65 18.3 61 16.1 87 87 SE 8 13 30.09 1019 9 14.48406 0 0
8:54 am 08:54 Sunny 66 18.9 62 16.7 87 87 S 14 22 30.09 1019 9 14.48406 0 0
9:54 am 09:54 Sunny 70 21.1 64 17.8 82 82 SSE 14 22 30.07 1018 10 16.0934 0 0
10:54 am 10:54 Mostly Sunny 73 22.8 65 18.3 76 76 S 13 20 30.07 1018 10 16.0934 0 0
11:54 am 11:54 Mostly Cloudy 76 24.4 64 17.8 67 67 S 14 22 30.06 1018 10 16.0934 0 0
12:01 pm 12:01 Mostly Cloudy 76 24.4 64 17.8 67 67 SSE 14 22 30.03 1017 10 16.0934 0 0
12:18 pm 12:18 Cloudy 77 25 63 17.2 62 62 S 13 20 30.03 1017 10 16.0934 0 0
12:29 pm 12:29 Mostly Cloudy 78 25.6 63 17.2 60 60 SSW 14 22 30.03 1017 10 16.0934 0 0
12:54 pm 12:54 Mostly Cloudy 76 24.4 62 16.7 62 62 SSW 9 15 30.06 1018 10 16.0934 0 0
1:54 pm 13:54 Mostly Cloudy 78 25.6 62 16.7 58 58 SW 14 22 30.04 1017 10 16.0934 0 0
2:54 pm 14:54 Sunny 77 25 61 16.1 58 58 SSW 13 20 30.03 1017 10 16.0934 0 0
3:54 pm 15:54 Sunny 77 25 62 16.7 60 60 SSW 8 13 30.02 1017 10 16.0934 0 0.0254
4:54 pm 16:54 Partly Cloudy with Light Rain 74 23.3 63 17.2 69 69 SSW 9 15 30.02 1017 8 12.87472 0 0.0254
5:54 pm 17:54 Mostly Cloudy 73 22.8 65 18.3 76 76 SSE 6 9 30.01 1016 10 16.0934 0.01 0.254
6:54 pm 18:54 Cloudy 72 22.2 64 17.8 76 76 S 6 9 30.01 1016 10 16.0934 0 0.0254
7:54 pm 19:54 Cloudy 70 21.1 65 18.3 84 84 S 6 9 30.01 1016 10 16.0934 0 0.0254
8:54 pm 20:54 Cloudy 71 21.7 63 17.2 76 76 SSE 9 15 30.01 1016 10 16.0934 0 0
9:54 pm 21:54 Cloudy 69 20.6 65 18.3 87 87 SSE 7 11 30.01 1016 10 16.0934 0 0.0254
10:54 pm 22:54 Mostly Clear 67 19.4 64 17.8 91 91 S 6 9 30.01 1016 10 16.0934 0 0
11:54 pm 23:54 Clear 66 18.9 64 17.8 93 93 S 7 11 30 1016 10 16.0934 0 0

Powered by AerisWeather